Weather History for Rickenbacker, OH

Change the Weather History Date:

Thursday, July 25, 2013

  Actual Average Record
Temperature  
Mean Temperature 67 °F -  
Max Temperature 79 °F 84 °F 98 °F (2005)
Min Temperature 55 °F 63 °F 55 °F (2013)
Cooling Degree Days 2    
Growing Degree Days 17 (Base 50)    
Moisture  
Dew Point 49 °F    
Average Humidity 55    
Maximum Humidity 80    
Minimum Humidity 28    
Precipitation  
Precipitation 0.00 in - - ()
Sea Level Pressure  
Sea Level Pressure 30.06 in    
Wind  
Wind Speed 5 mph (NE)    
Max Wind Speed 10 mph    
Max Gust Speed -    
Visibility 10 miles    
Events      
Averages and records for this station are not official NWS values.
T = Trace of Precipitation, MM = Missing Value Source: NWS Daily Summary

Daily Weather History Graph

Daily Weather History Graph

Search for Another Location

Airport:

Trip Planner

Search our weather history database for the weather conditions in past years. The results will help you decide how hot, cold, wet, or windy it might be!

Date:

Astronomy

Jul. 25, 2013 Rise Set
Actual Time 6:24 AM EDT 8:51 PM EDT
Civil Twilight 5:53 AM EDT 9:22 PM EDT
Nautical Twilight 5:15 AM EDT 10:00 PM EDT
Astronomical Twilight 4:32 AM EDT 10:42 PM EDT
Moon 10:32 PM EDT (7/25) 9:52 AM EDT (7/25)
Length of Visible Light 15h 28m
Length of Day
14h 27m
Waning Gibbous, 88% of the Moon is Illuminated
Jul 25
Waning Gibbous
Jul 29
Last Quarter
Aug 6
New
Aug 14
First Quarter
Aug 20
Full

Hourly Weather History & Observations

Time (EDT) Temp. Dew Point Humidity Pressure Visibility Wind Dir Wind Speed Gust Speed Precip Events Conditions
12:15 AM 61.2 °F 51.1 °F 69% 30.01 in 10.0 mi NE 6.9 mph - N/A   Clear
12:35 AM 60.1 °F 51.1 °F 72% 30.02 in 10.0 mi NE 6.9 mph - N/A   Clear
12:55 AM 59.4 °F 50.9 °F 74% 30.03 in 10.0 mi NE 6.9 mph - N/A   Clear
1:15 AM 59.4 °F 50.5 °F 73% 30.02 in 10.0 mi NE 8.1 mph - N/A   Clear
1:35 AM 59.0 °F 50.2 °F 73% 30.03 in 10.0 mi NE 6.9 mph - N/A   Clear
1:55 AM 58.5 °F 50.4 °F 74% 30.03 in 10.0 mi NNE 6.9 mph - N/A   Clear
2:15 AM 59.0 °F 50.4 °F 73% 30.03 in 10.0 mi NE 6.9 mph - N/A   Clear
2:35 AM 58.1 °F 50.2 °F 75% 30.03 in 10.0 mi ENE 3.5 mph - N/A   Clear
2:55 AM 57.6 °F 50.2 °F 76% 30.02 in 10.0 mi Calm Calm - N/A   Clear
3:15 AM 58.1 °F 50.2 °F 75% 30.02 in 10.0 mi Calm Calm - N/A   Clear
3:35 AM 57.9 °F 50.2 °F 75% 30.02 in 10.0 mi Calm Calm - N/A   Clear
3:55 AM 58.3 °F 50.2 °F 74% 30.03 in 10.0 mi NNE 3.5 mph - N/A   Clear
4:15 AM 57.9 °F 50.0 °F 75% 30.03 in 10.0 mi NE 4.6 mph - N/A   Clear
4:35 AM 56.7 °F 49.8 °F 78% 30.03 in 10.0 mi NE 5.8 mph - N/A   Clear
4:55 AM 55.9 °F 49.5 °F 79% 30.03 in 10.0 mi NNE 4.6 mph - N/A   Clear
5:15 AM 56.3 °F 49.8 °F 79% 30.03 in 10.0 mi North 5.8 mph - N/A   Clear
5:35 AM 56.7 °F 50.0 °F 78% 30.03 in 10.0 mi North 4.6 mph - N/A   Clear
5:55 AM 56.7 °F 49.6 °F 77% 30.03 in 10.0 mi North 6.9 mph - N/A   Clear
6:15 AM 56.7 °F 49.6 °F 77% 30.04 in 10.0 mi North 6.9 mph - N/A   Clear
6:35 AM 56.3 °F 49.6 °F 78% 30.04 in 10.0 mi NNE 5.8 mph - N/A   Clear
6:55 AM 55.8 °F 49.6 °F 80% 30.04 in 10.0 mi NNE 3.5 mph - N/A   Clear
7:15 AM 56.5 °F 50.0 °F 79% 30.05 in 10.0 mi NNE 5.8 mph - N/A   Clear
7:35 AM 58.1 °F 50.7 °F 76% 30.05 in 10.0 mi NNE 4.6 mph - N/A   Clear
7:55 AM 59.4 °F 50.7 °F 73% 30.06 in 10.0 mi North 5.8 mph - N/A   Clear
8:15 AM 60.6 °F 51.1 °F 71% 30.06 in 10.0 mi NE 5.8 mph - N/A   Clear
8:35 AM 61.7 °F 50.7 °F 67% 30.07 in 10.0 mi NE 5.8 mph - N/A   Clear
8:55 AM 63.3 °F 50.5 °F 63% 30.08 in 10.0 mi NE 5.8 mph - N/A   Clear
9:15 AM 65.1 °F 50.2 °F 58% 30.07 in 10.0 mi NE 8.1 mph - N/A   Clear
9:35 AM 66.0 °F 50.4 °F 57% 30.08 in 10.0 mi NE 5.8 mph - N/A   Clear
9:55 AM 67.1 °F 49.3 °F 53% 30.07 in 10.0 mi ENE 5.8 mph - N/A   Clear
10:15 AM 68.0 °F 48.6 °F 50% 30.07 in 10.0 mi ENE 5.8 mph - N/A   Clear
10:35 AM 69.1 °F 45.3 °F 42% 30.07 in 10.0 mi NE 8.1 mph - N/A   Clear
10:55 AM 70.0 °F 45.0 °F 41% 30.07 in 10.0 mi ENE 10.4 mph - N/A   Clear
11:15 AM 70.5 °F 44.2 °F 39% 30.07 in 10.0 mi NE 6.9 mph - N/A   Clear
11:35 AM 71.4 °F 44.2 °F 38% 30.07 in 10.0 mi ENE 8.1 mph - N/A   Clear
11:55 AM 72.1 °F 44.4 °F 37% 30.08 in 10.0 mi NE 9.2 mph - N/A   Clear
12:15 PM 72.7 °F 43.9 °F 36% 30.08 in 10.0 mi NNE 9.2 mph - N/A   Clear
12:35 PM 73.4 °F 43.7 °F 34% 30.07 in 10.0 mi NNE 10.4 mph - N/A   Clear
12:55 PM 73.8 °F 44.1 °F 34% 30.07 in 10.0 mi North 8.1 mph - N/A   Clear
1:15 PM 74.5 °F 45.1 °F 35% 30.07 in 10.0 mi North 5.8 mph - N/A   Clear
1:35 PM 74.8 °F 43.7 °F 33% 30.06 in 10.0 mi NNE 4.6 mph - N/A   Clear
1:55 PM 75.6 °F 43.5 °F 32% 30.07 in 10.0 mi NNE 5.8 mph - N/A   Clear
2:15 PM 75.9 °F 43.7 °F 32% 30.07 in 10.0 mi ENE 4.6 mph - N/A   Clear
2:35 PM 76.1 °F 43.2 °F 31% 30.06 in 10.0 mi NNW 4.6 mph - N/A   Clear
2:55 PM 77.2 °F 43.2 °F 30% 30.06 in 10.0 mi NNW 6.9 mph - N/A   Clear
3:15 PM 77.2 °F 41.7 °F 28% 30.06 in 10.0 mi North 8.1 mph - N/A   Clear
3:35 PM 77.5 °F 42.8 °F 29% 30.06 in 10.0 mi NE 8.1 mph - N/A   Clear
3:55 PM 77.9 °F 44.4 °F 30% 30.06 in 10.0 mi NNE 8.1 mph - N/A   Clear
4:15 PM 78.4 °F 43.0 °F 28% 30.06 in 10.0 mi NE 4.6 mph - N/A   Clear
4:35 PM 78.6 °F 43.2 °F 28% 30.06 in 10.0 mi Calm Calm - N/A   Clear
4:55 PM 78.4 °F 44.2 °F 30% 30.07 in 10.0 mi NE 5.8 mph - N/A   Clear
5:15 PM 79.0 °F 45.5 °F 31% 30.06 in 10.0 mi NNE 8.1 mph - N/A   Clear
5:35 PM 78.8 °F 47.3 °F 33% 30.06 in 10.0 mi East 5.8 mph - N/A   Clear
5:55 PM 78.6 °F 45.3 °F 31% 30.06 in 10.0 mi Calm Calm - N/A   Clear
6:15 PM 78.6 °F 45.5 °F 31% 30.05 in 10.0 mi ENE 9.2 mph - N/A   Clear
6:35 PM 78.3 °F 47.1 °F 33% 30.05 in 10.0 mi East 6.9 mph - N/A   Clear
6:55 PM 77.7 °F 47.8 °F 35% 30.05 in 10.0 mi ENE 6.9 mph - N/A   Clear
7:15 PM 77.2 °F 48.4 °F 36% 30.06 in 10.0 mi East 4.6 mph - N/A   Clear
7:35 PM 76.5 °F 48.9 °F 38% 30.06 in 10.0 mi East 5.8 mph - N/A   Clear
7:55 PM 75.4 °F 51.3 °F 43% 30.06 in 10.0 mi ESE 3.5 mph - N/A   Clear
8:15 PM 73.9 °F 53.2 °F 48% 30.06 in 10.0 mi ESE 3.5 mph - N/A   Clear
8:35 PM 72.5 °F 54.0 °F 52% 30.06 in 10.0 mi Calm Calm - N/A   Clear
8:55 PM 72.0 °F 52.7 °F 51% 30.06 in 10.0 mi Calm Calm - N/A   Clear
9:15 PM 71.1 °F 53.6 °F 54% 30.07 in 10.0 mi Calm Calm - N/A   Clear
9:35 PM 71.2 °F 52.3 °F 51% 30.08 in 10.0 mi Calm Calm - N/A   Clear
9:55 PM 68.9 °F 54.9 °F 61% 30.08 in 10.0 mi Calm Calm - N/A   Clear
10:15 PM 68.4 °F 54.9 °F 62% 30.08 in 10.0 mi Calm Calm - N/A   Clear
10:35 PM 66.4 °F 55.2 °F 67% 30.09 in 10.0 mi Calm Calm - N/A   Clear
10:55 PM 65.7 °F 55.4 °F 69% 30.09 in 10.0 mi Calm Calm - N/A   Clear
11:15 PM 65.8 °F 54.7 °F 67% 30.09 in 10.0 mi Calm Calm - N/A   Clear
11:35 PM 64.9 °F 54.7 °F 69% 30.08 in 10.0 mi Calm Calm - N/A   Clear
11:55 PM 63.0 °F 55.2 °F 76% 30.09 in 10.0 mi Calm Calm - N/A   Clear